Location: Ashtead
(51.3000°N, 0.3000°W)
Time: 19:18:40
(UTC+00:00)

ALOS - Pass Details

Date: 26 September 2023
Orbit: 676 x 679 km, 98.0° (Epoch: 10 December)

Event Time Altitude Azimuth Distance (km) Brightness Sun altitude
Rises 03:05:18 0° 14° (NNE) 3,054 6.3 -25.6°
Reaches altitude 10° 03:07:33 10° 16° (NNE) 2,134 5.4 -25.3°
Maximum altitude 03:12:14 82° 103° (ESE) 694 2.2 -24.7°
Enters shadow 03:12:38 73° 166° (SSE) 715 2.2 -24.7°
